Weather Roundup
Issued by NWS Chicago, IL

Home | Current Version | Previous Version | Graphics & Text | Print | Product List | Glossary On
Versions: 1 2 3 4 5 6 7 8 9 10 11 12 13 14 15 16 17 18 19 20 21 22 23 24 25 26 27 28 29 30 31 32 33 34 35 36 37 38 39 40 41 42 43 44 45 46 47 48 49 50
000
NZUS59 KLOT 220706
HRRLOT

CHICAGO AREA WEATHER ROUNDUP
NATIONAL WEATHER SERVICE CHICAGO/ROMEOVILLE IL
200 AM CDT TUE JUL 22 2014

NOTE: "FAIR" INDICATES FEW OR NO CLOUDS BELOW 12,000 FEET WITH NO
SIGNIFICANT WEATHER AND/OR OBSTRUCTIONS TO VISIBILITY.

* THESE STATIONS ARE NOT UNDER NWS QUALITY CONTROL. THEY ALSO MAY NOT
  REPORT WEATHER SUCH AS PRECIPITATION OR FOG.

ILZ005-006-012>014-019>023-220800-
NORTHEAST ILLINOIS

CITY           SKY/WX    TMP DP  RH WIND       PRES   REMARKS
OHARE          CLEAR     72  63  73 SW5       30.05S
MIDWAY         CLEAR     75  65  70 S5        30.05F
AURORA         CLEAR     70  64  81 S7        30.06S
LANSING*       CLEAR     66  63  89 S3        30.07S
JOLIET*        FOG       65  64  94 CALM      30.07S VSB 3/4
WAUKEGAN       CLEAR     68  64  87 S5        30.05R
DUPAGE AIRPORT CLEAR     69  65  86 S7        30.06R
WHEELING       CLEAR     74  65  73 S6        30.07R
KANKAKEE*      CLEAR     65  64  96 CALM      30.08S FOG
MORRIS*        CLEAR     67  67  99 CALM      30.06R
LEWIS AIRPORT* CLEAR     66  64  94 S5        30.07R
NORTHERLY IS     N/A     75  63  66 S6          N/A
$$

WIZ051-052-058>065-066-070>072-220800-
SOUTHEAST WISCONSIN

CITY           SKY/WX    TMP DP  RH WIND       PRES   REMARKS
MILWAUKEE      PTCLDY    73  65  75 S9        30.02F
KENOSHA*       CLEAR     70  65  84 S6        30.05S
RACINE*        CLEAR     71  65  81 SW7       30.06R
BURLINGTON     CLEAR     67  64  91 S3        30.04F
WAUKESHA       CLEAR     68  63  83 S6        30.04F
WEST BEND      CLEAR     70  63  78 S6        30.02F
$$

INZ001>003-010>013-019-020-220800-
NORTHWEST INDIANA

CITY           SKY/WX    TMP DP  RH WIND       PRES   REMARKS
GARY*          CLEAR     67  64  92 CALM      30.07S
MICHIGAN CITY* NOT AVBL
RENSSELAER*    NOT AVBL
VALPARAISO     CLEAR     67  63  87 CALM      30.09R
$$

LMZ740>746-220800-
SOUTHERN LAKE MICHIGAN

STATION/POSITION TIME  SKY/WX   TEMP WIND        PRES    VSBY
                                AIR  DIR/SP/G
                 (UTC)          (F)  (DEG/KT/KT) (MB)    (MI)
HARRISON CRIB    0700            74  190/  9/ 10   N/A
BURNHAM HARBOR   0700            74  190/  7/  8   N/A
CALUMET HARBOR   0700            73  180/  5/  6 1016.9R
BURNS HARBOR     0600            71  200/  6/  8 1018.6S
MICHIGAN CITY    0700            73  150/  9/ 11   N/A
$$

ABBREVIATIONS USED IN REMARKS
   TC - TEMPERATURE IN CELSIUS
  WCI - WIND CHILL INDEX
   HX - HEAT INDEX
  VSB - VISIBILITY
$$



USA.gov is the U.S. government's official web portal to all federal, state and local government web resources and services.